Other Public Products
Issued by NWS Charleston, SC

Current Version | Previous Version | Graphics & Text | Print | Product List | Glossary On
Versions: 1 2 3 4 5 6 7 8 9 10 11 12 13 14 15 16 17 18 19 20 21 22 23 24 25 26 27 28 29 30 31 32 33 34 35 36 37 38 39 40 41 42 43 44 45 46 47 48 49 50
000 FPUS82 KCHS 250431 OPUCHS TEST...KCHS/KSAV Gateway Observations...TEST National Weather Service Charleston SC 1200 AM EDT MON SEP 25 2017 NOTE: "fair" indicates few or no clouds below 12,000 feet with no significant weather and/or obstructions to visibility. SCZ050-WAZ558-NCZ071-TXZ119-213-PAZ071-DCZ001-FLZ074-172-MI076- NYZ176-178-MAZ016-IL014-TNZ027-NJZ106-GAZ044-MD014-250500- ...Gateway Observations for Charleston International... CITY SKY/WX TMP DP RH WIND PRES REMARKS Chas Airport CLOUDY 73 69 87 N6 29.93F Seattle MOCLDY 65 47 52 CALM 30.10S Charlotte CLOUDY 70 64 81 NW7 30.03S Dallas DFW PTCLDY 82 66 58 SE10 29.87R Dallas Love PTCLDY 82 66 58 SE14 29.88S Philladelphia CLEAR 75 65 70 CALM 30.04F Wash National PTCLDY 75 70 84 N5 30.05S Baltimore PTCLDY 70 67 90 CALM 30.04S Miami PTCLDY 82 75 79 CALM 29.88F Detroit CLEAR 74 65 73 E3 30.09F Newark CLEAR 75 66 73 CALM 30.04F Laguardia CLEAR 76 64 66 CALM 30.03F J F K CLEAR 72 63 73 SE3 30.05F Boston Logan CLEAR 68 65 90 SE6 30.04S Ft. Lauderdale PTCLDY 83 75 77 CALM 29.87S HX 90 Chicago O`Hare CLEAR 76 61 59 SE5 30.01S Chicago Midway CLEAR 78 65 63 CALM 30.01F Houston Bush PTCLDY 74 71 91 CALM 29.90R Houston Hobby PTCLDY 81 73 76 E3 29.88S Nashville MOCLDY 73 67 81 CALM 30.02F Atlanta PTCLDY 74 64 71 E7 30.03S $$ GAZ044-118-TXZ119-213-NCZ071-DCZ001-MDZ014-506-PAZ021-071-NJZ106- NYZ176-178-MAZ106-OHZ011-021-055-MIZ076-KYZ091-ILZ014-INZ047- MNZ060-ONZ431-250500- ...Gateway Observations for Savannah International... CITY SKY/WX TMP DP RH WIND PRES REMARKS Savannah Arpt MOCLDY 73 70 90 CALM 29.95S Atlanta PTCLDY 74 64 71 E7 30.03S Charlotte CLOUDY 70 64 81 NW7 30.03S Dallas DFW PTCLDY 82 66 58 SE10 29.87R Houston Bush PTCLDY 74 71 91 CALM 29.90R Wash National PTCLDY 75 70 84 N5 30.05S Wash Dulles CLEAR 68 65 90 NW3 30.06S Baltimore PTCLDY 70 67 90 CALM 30.04S Philadelphia CLEAR 75 65 70 CALM 30.04F Newark CLEAR 75 66 73 CALM 30.04F Laguardia CLEAR 76 64 66 CALM 30.03F J F K CLEAR 72 63 73 SE3 30.05F Boston CLEAR 68 65 90 SE6 30.04S Pittsburg CLEAR 70 64 81 CALM 30.11S Akron CLEAR 71 61 70 NE7 30.11F Cleveland CLEAR 75 66 73 CALM 30.10F Cincinnati MOCLDY 71 56 58 SE3 30.05F Columbus CLEAR 68 64 88 CALM 30.06F Detroit CLEAR 74 65 73 E3 30.09F Chicago O`Hare CLEAR 76 61 59 SE5 30.01S Minneapolis MOCLDY 73 66 78 W7 29.92R Indianapolis PTCLDY 74 56 53 CALM 30.04F Toronto Canada CLEAR 77 64 65 W2 30.09F $$

USA.gov is the U.S. government's official web portal to all federal, state and local government web resources and services.